ProjectID,Date,Electric Generation,Electric Utility Import,Facility Electric Load
,YYYY-MM-DD,kW,kW,kW
116,2013-03-26,21.8425,,21.8425
116,2013-03-27,31.388333333333335,,31.388333333333335
116,2013-03-28,24.73375,,24.73375
116,2013-03-29,28.145833333333332,,28.145833333333332
116,2013-03-30,35.74875,,35.74875
116,2013-03-31,18.27125,,18.27125
116,2013-04-01,22.535416666666666,,22.535416666666666
116,2013-04-02,41.919583333333335,,41.919583333333335
116,2013-04-03,42.24125,,42.24125
116,2013-04-04,40.31916666666667,,40.31916666666667
116,2013-04-05,38.98875,,38.98875
116,2013-04-06,43.428333333333335,,43.428333333333335
116,2013-04-07,33.208333333333336,,33.208333333333336
116,2013-04-08,38.6945,,38.6945
116,2013-04-09,38.72170833333333,,38.72170833333333
116,2013-04-10,30.306124999999998,,30.306124999999998
116,2013-04-11,26.780833333333334,,26.780833333333334
116,2013-04-12,3.7579999999999996,,3.7579999999999996
116,2013-04-13,25.325416666666666,,25.325416666666666
116,2013-04-14,38.48129166666667,,38.48129166666667
116,2013-04-15,35.574666666666666,,35.574666666666666
116,2013-04-16,26.508916666666668,,26.508916666666668
116,2013-04-17,41.728791666666666,,41.728791666666666
116,2013-04-18,17.737458333333333,,17.737458333333333
116,2013-04-19,16.926666666666666,,16.926666666666666
116,2013-04-20,33.44504166666667,,33.44504166666667
116,2013-04-21,45.95254166666667,,45.95254166666667
116,2013-04-22,45.79125,,45.79125
116,2013-04-23,14.843708333333334,,14.843708333333334
116,2013-04-24,41.17870833333333,,41.17870833333333
116,2013-04-25,44.625375,,44.625375
116,2013-04-26,44.032041666666665,,44.032041666666665
116,2013-04-27,43.642500000000005,,43.642500000000005
116,2013-04-28,37.51375,,37.51375
116,2013-04-29,7.795833333333333,,7.795833333333333
116,2013-04-30,38.430416666666666,,38.430416666666666
116,2013-05-01,45.354125,,45.354125
116,2013-05-02,43.39033333333333,,43.39033333333333
116,2013-05-03,45.25125,,45.25125
116,2013-05-04,44.449041666666666,,44.449041666666666
116,2013-05-05,45.556291666666674,,45.556291666666674
116,2013-05-06,40.06079166666667,,40.06079166666667
116,2013-05-07,40.78295833333333,,40.78295833333333
116,2013-05-08,7.44125,,7.44125
116,2013-05-09,15.064416666666666,,15.064416666666666
116,2013-05-10,36.275,,36.275
116,2013-05-11,12.141625,,12.141625
116,2013-05-12,38.16125,,38.16125
116,2013-05-13,34.64366666666667,,34.64366666666667
116,2013-05-14,42.189083333333336,,42.189083333333336
116,2013-05-15,24.232125,,24.232125
116,2013-05-16,39.08170833333333,,39.08170833333333
116,2013-05-17,38.05958333333333,,38.05958333333333
116,2013-05-18,24.615416666666665,,24.615416666666665
116,2013-05-19,6.320833333333333,,6.320833333333333
116,2013-05-20,26.222541666666668,,26.222541666666668
116,2013-05-21,37.10166666666667,,37.10166666666667
116,2013-05-22,25.958291666666668,,25.958291666666668
116,2013-05-23,11.687833333333332,,11.687833333333332
116,2013-05-24,8.46575,,8.46575
116,2013-05-25,27.31758333333333,,27.31758333333333
116,2013-05-26,35.70304166666667,,35.70304166666667
116,2013-05-27,47.102125,,47.102125
116,2013-05-28,15.314625,,15.314625
116,2013-05-29,26.227999999999998,,26.227999999999998
116,2013-05-30,36.771375,,36.771375
116,2013-05-31,36.954125,,36.954125
116,2013-06-01,40.58170833333333,,40.58170833333333
116,2013-06-02,37.76425,,37.76425
116,2013-06-03,24.639958333333336,,24.639958333333336
116,2013-06-04,47.79333333333333,,47.79333333333333
116,2013-06-05,45.412958333333336,,45.412958333333336
116,2013-06-06,22.567375,,22.567375
116,2013-06-07,3.3662083333333332,,3.3662083333333332
116,2013-06-08,30.96775,,30.96775
116,2013-06-09,41.96475,,41.96475
116,2013-06-10,8.555833333333334,,8.555833333333334
116,2013-06-11,30.842,,30.842
116,2013-06-12,43.21666666666667,,43.21666666666667
116,2013-06-13,3.677125,,3.677125
116,2013-06-14,30.11916666666667,,30.11916666666667
116,2013-06-15,44.37954166666666,,44.37954166666666
116,2013-06-16,26.313291666666668,,26.313291666666668
116,2013-06-17,39.7975,,39.7975
116,2013-06-18,23.36883333333333,,23.36883333333333
116,2013-06-19,46.201875,,46.201875
116,2013-06-20,38.58079166666666,,38.58079166666666
116,2013-06-21,41.01891666666666,,41.01891666666666
116,2013-06-22,42.14,,42.14
116,2013-06-23,40.9245,,40.9245
116,2013-06-24,35.06675,,35.06675
116,2013-06-25,34.8115,,34.8115
116,2013-06-26,19.223916666666668,,19.223916666666668
116,2013-06-27,31.657875,,31.657875
116,2013-06-28,32.20020833333333,,32.20020833333333
116,2013-06-29,34.97275,,34.97275
116,2013-06-30,22.609375,,22.609375
116,2013-07-01,10.944916666666666,,10.944916666666666
116,2013-07-02,19.248458333333335,,19.248458333333335
116,2013-07-03,26.432625,,26.432625
116,2013-07-04,35.491875,,35.491875
116,2013-07-05,40.370666666666665,,40.370666666666665
116,2013-07-06,38.35941666666667,,38.35941666666667
116,2013-07-07,39.708333333333336,,39.708333333333336
116,2013-07-08,40.744458333333334,,40.744458333333334
116,2013-07-09,29.5895,,29.5895
116,2013-07-10,26.977208333333333,,26.977208333333333
116,2013-07-11,24.92425,,24.92425
116,2013-07-12,18.969083333333334,,18.969083333333334
116,2013-07-13,14.817041666666666,,14.817041666666666
116,2013-07-14,35.521791666666665,,35.521791666666665
116,2013-07-15,36.626625,,36.626625
116,2013-07-16,41.02675,,41.02675
116,2013-07-17,39.032833333333336,,39.032833333333336
116,2013-07-18,40.169333333333334,,40.169333333333334
116,2013-07-19,36.623,,36.623
116,2013-07-20,33.529916666666665,,33.529916666666665
116,2013-07-21,37.282875,,37.282875
116,2013-07-22,23.931375,,23.931375
116,2013-07-23,29.278666666666666,,29.278666666666666
116,2013-07-24,33.923541666666665,,33.923541666666665
116,2013-07-25,13.091416666666667,,13.091416666666667
116,2013-07-26,37.962250000000004,,37.962250000000004
116,2013-07-27,34.035375,,34.035375
116,2013-07-28,17.388041666666666,,17.388041666666666
116,2013-07-29,36.38608333333333,,36.38608333333333
116,2013-07-30,34.34254166666667,,34.34254166666667
116,2013-07-31,33.56875,,33.56875
116,2013-08-01,8.354541666666666,,8.354541666666666
116,2013-08-02,37.704166666666666,,37.704166666666666
116,2013-08-03,20.636458333333334,,20.636458333333334
116,2013-08-04,40.51495833333333,,40.51495833333333
116,2013-08-05,44.54004166666667,,44.54004166666667
116,2013-08-06,29.761125000000003,,29.761125000000003
116,2013-08-07,13.485041666666667,,13.485041666666667
116,2013-08-08,14.166416666666668,,14.166416666666668
116,2013-08-09,13.876291666666667,,13.876291666666667
116,2013-08-10,34.572875,,34.572875
116,2013-08-11,34.452708333333334,,34.452708333333334
116,2013-08-12,33.460541666666664,,33.460541666666664
116,2013-08-13,15.045916666666665,,15.045916666666665
116,2013-08-14,41.808625,,41.808625
116,2013-08-15,40.40991666666667,,40.40991666666667
116,2013-08-16,30.688166666666664,,30.688166666666664
116,2013-08-17,36.767916666666665,,36.767916666666665
116,2013-08-18,18.838916666666666,,18.838916666666666
116,2013-08-19,25.297833333333333,,25.297833333333333
116,2013-08-20,37.152750000000005,,37.152750000000005
116,2013-08-21,36.478249999999996,,36.478249999999996
116,2013-08-22,11.659791666666665,,11.659791666666665
116,2013-08-23,33.779,,33.779
116,2013-08-24,40.83241666666667,,40.83241666666667
116,2013-08-25,39.575291666666665,,39.575291666666665
116,2013-08-26,12.192708333333334,,12.192708333333334
116,2013-08-27,32.81645833333334,,32.81645833333334
116,2013-08-28,22.456999999999997,,22.456999999999997
116,2013-08-29,18.114625,,18.114625
116,2013-08-30,29.71775,,29.71775
116,2013-08-31,19.428124999999998,,19.428124999999998
116,2013-09-01,17.81125,,17.81125
116,2013-09-02,13.753916666666667,,13.753916666666667
116,2013-09-03,25.955416666666665,,25.955416666666665
116,2013-09-04,38.330708333333334,,38.330708333333334
116,2013-09-05,29.579125,,29.579125
116,2013-09-06,38.527,,38.527
116,2013-09-07,34.257875,,34.257875
116,2013-09-08,33.29395833333333,,33.29395833333333
116,2013-09-09,32.38570833333333,,32.38570833333333
116,2013-09-10,16.426166666666667,,16.426166666666667
116,2013-09-11,29.919,,29.919
116,2013-09-12,16.994541666666667,,16.994541666666667
116,2013-09-13,20.918291666666665,,20.918291666666665
116,2013-09-14,29.3415,,29.3415
116,2013-09-15,33.67425,,33.67425
116,2013-09-16,17.892958333333333,,17.892958333333333
116,2013-09-17,37.95670833333333,,37.95670833333333
116,2013-09-18,36.09191666666667,,36.09191666666667
116,2013-09-19,35.285583333333335,,35.285583333333335
116,2013-09-20,33.772083333333335,,33.772083333333335
116,2013-09-21,17.902333333333335,,17.902333333333335
116,2013-09-22,28.433666666666667,,28.433666666666667
116,2013-09-23,36.82170833333333,,36.82170833333333
116,2013-09-24,35.412708333333335,,35.412708333333335
116,2013-09-25,32.250708333333336,,32.250708333333336
116,2013-09-26,20.060583333333334,,20.060583333333334
116,2013-09-27,20.984416666666664,,20.984416666666664
116,2013-09-28,32.77154166666667,,32.77154166666667
116,2013-09-29,29.875666666666664,,29.875666666666664
116,2013-09-30,29.583416666666665,,29.583416666666665
116,2013-10-01,30.457624999999997,,30.457624999999997
116,2013-10-02,29.033208333333334,,29.033208333333334
116,2013-10-03,24.944666666666667,,24.944666666666667
116,2013-10-04,21.086625,,21.086625
116,2013-10-05,16.475958333333335,,16.475958333333335
116,2013-10-06,2.1367499999999997,,2.1367499999999997
116,2013-10-07,6.149791666666666,,6.149791666666666
116,2013-10-08,0.0,,0.0
116,2013-10-09,19.507166666666667,,19.507166666666667
116,2013-10-10,8.134125,,8.134125
116,2013-10-11,7.559333333333334,,7.559333333333334
116,2013-10-12,25.781208333333336,,25.781208333333336
116,2013-10-13,25.116500000000002,,25.116500000000002
116,2013-10-14,24.08725,,24.08725
116,2013-10-15,27.614666666666665,,27.614666666666665
116,2013-10-16,11.404916666666667,,11.404916666666667
116,2013-10-17,18.111375,,18.111375
116,2013-10-18,27.054041666666667,,27.054041666666667
116,2013-10-19,0.0,,0.0
116,2013-10-20,28.449916666666667,,28.449916666666667
116,2013-10-21,27.389291666666665,,27.389291666666665
116,2013-10-22,11.994791666666666,,11.994791666666666
116,2013-10-23,12.875708333333334,,12.875708333333334
116,2013-10-24,25.964291666666668,,25.964291666666668
116,2013-10-25,18.746166666666667,,18.746166666666667
116,2013-10-26,27.50916666666667,,27.50916666666667
116,2013-10-27,24.975333333333335,,24.975333333333335
116,2013-10-28,25.892625,,25.892625
116,2013-10-29,14.264291666666667,,14.264291666666667
116,2013-10-30,6.93625,,6.93625
116,2013-10-31,3.468083333333333,,3.468083333333333
116,2013-11-01,10.268291666666666,,10.268291666666666
116,2013-11-02,17.466833333333334,,17.466833333333334
116,2013-11-03,15.361416666666665,,15.361416666666665
116,2013-11-04,25.993624999999998,,25.993624999999998
116,2013-11-05,15.338583333333332,,15.338583333333332
116,2013-11-06,11.158916666666668,,11.158916666666668
116,2013-11-07,3.06775,,3.06775
116,2013-11-08,18.438208333333332,,18.438208333333332
116,2013-11-09,12.862,,12.862
116,2013-11-10,14.352208333333332,,14.352208333333332
116,2013-11-11,13.555458333333334,,13.555458333333334
116,2013-11-12,6.4597083333333325,,6.4597083333333325
116,2013-11-13,24.390625,,24.390625
116,2013-11-14,22.733791666666665,,22.733791666666665
116,2013-11-15,16.34375,,16.34375
116,2013-11-16,19.430333333333333,,19.430333333333333
116,2013-11-17,2.7702500000000003,,2.7702500000000003
116,2013-11-18,20.419999999999998,,20.419999999999998
116,2013-11-19,21.556083333333333,,21.556083333333333
116,2013-11-20,22.535791666666668,,22.535791666666668
116,2013-11-21,15.918083333333334,,15.918083333333334
116,2013-11-22,6.758500000000001,,6.758500000000001
116,2013-11-23,21.738375,,21.738375
116,2013-11-24,20.806708333333333,,20.806708333333333
116,2013-11-25,20.697916666666668,,20.697916666666668
116,2013-11-26,3.818375,,3.818375
116,2013-11-27,1.1269583333333333,,1.1269583333333333
116,2013-11-28,19.816416666666665,,19.816416666666665
116,2013-11-29,14.506583333333333,,14.506583333333333
116,2013-11-30,17.76625,,17.76625
116,2013-12-01,12.221375,,12.221375
116,2013-12-02,5.110041666666667,,5.110041666666667
116,2013-12-03,12.791666666666666,,12.791666666666666
116,2013-12-04,14.054041666666668,,14.054041666666668
116,2013-12-05,1.5123749999999998,,1.5123749999999998
116,2013-12-06,1.5618333333333334,,1.5618333333333334
116,2013-12-07,6.8990833333333335,,6.8990833333333335
116,2013-12-08,3.813166666666667,,3.813166666666667
116,2013-12-09,2.5729583333333332,,2.5729583333333332
116,2013-12-10,0.06575,,0.06575
116,2013-12-11,5.884083333333333,,5.884083333333333
116,2013-12-12,18.645833333333332,,18.645833333333332
116,2013-12-13,17.069583333333334,,17.069583333333334
116,2013-12-14,0.06575,,0.06575
116,2013-12-15,0.0006666666666666666,,0.0006666666666666666
116,2013-12-16,0.16345833333333334,,0.16345833333333334
116,2013-12-17,0.0,,0.0
116,2013-12-18,0.0,,0.0
116,2013-12-19,0.001958333333333333,,0.001958333333333333
116,2013-12-20,0.472,,0.472
116,2013-12-21,8.225375,,8.225375
116,2013-12-22,3.0722916666666666,,3.0722916666666666
116,2013-12-23,0.9082083333333334,,0.9082083333333334
116,2013-12-24,14.647166666666665,,14.647166666666665
116,2013-12-25,17.346375,,17.346375
116,2013-12-26,6.360041666666667,,6.360041666666667
116,2013-12-27,12.798208333333333,,12.798208333333333
116,2013-12-28,13.364624999999998,,13.364624999999998
116,2013-12-29,1.201125,,1.201125
116,2013-12-30,5.276791666666667,,5.276791666666667
116,2013-12-31,11.272166666666665,,11.272166666666665
116,2014-01-01,10.806,,10.806
116,2014-01-02,0.255875,,0.255875
116,2014-01-03,4.202541666666667,,4.202541666666667
116,2014-01-04,8.811916666666667,,8.811916666666667
116,2014-01-05,3.9948333333333337,,3.9948333333333337
116,2014-01-06,2.9147916666666664,,2.9147916666666664
116,2014-01-07,11.53975,,11.53975
116,2014-01-08,13.8555,,13.8555
116,2014-01-09,17.416083333333333,,17.416083333333333
116,2014-01-10,1.8392083333333333,,1.8392083333333333
116,2014-01-11,0.9257916666666667,,0.9257916666666667
116,2014-01-12,6.792291666666666,,6.792291666666666
116,2014-01-13,11.34775,,11.34775
116,2014-01-14,1.0122916666666668,,1.0122916666666668
116,2014-01-15,7.295625,,7.295625
116,2014-01-16,4.73175,,4.73175
116,2014-01-17,18.112666666666666,,18.112666666666666
116,2014-01-18,1.6933749999999999,,1.6933749999999999
116,2014-01-19,12.079458333333333,,12.079458333333333
116,2014-01-20,4.3542499999999995,,4.3542499999999995
116,2014-01-21,0.7955833333333334,,0.7955833333333334
116,2014-01-22,0.7793749999999999,,0.7793749999999999
116,2014-01-23,0.9505833333333333,,0.9505833333333333
116,2014-01-24,1.6829166666666666,,1.6829166666666666
116,2014-01-25,0.45116666666666666,,0.45116666666666666
116,2014-01-26,0.34833333333333333,,0.34833333333333333
116,2014-01-27,0.7714583333333334,,0.7714583333333334
116,2014-01-28,6.423791666666666,,6.423791666666666
116,2014-01-29,4.255208333333333,,4.255208333333333
116,2014-01-30,12.955083333333334,,12.955083333333334
116,2014-01-31,11.834000000000001,,11.834000000000001
116,2014-02-01,16.236416666666667,,16.236416666666667
116,2014-02-02,9.817083333333334,,9.817083333333334
116,2014-02-03,0.0,,0.0
116,2014-02-04,0.07162500000000001,,0.07162500000000001
116,2014-02-05,0.0,,0.0
116,2014-02-06,0.0,,0.0
116,2014-02-07,0.0,,0.0
116,2014-02-08,0.0,,0.0
116,2014-02-09,0.0,,0.0
116,2014-02-10,0.0,,0.0
116,2014-02-11,0.0,,0.0
116,2014-02-12,0.0,,0.0
116,2014-02-13,0.0,,0.0
116,2014-02-14,0.0,,0.0
116,2014-02-15,0.0,,0.0
116,2014-02-16,0.0,,0.0
116,2014-02-17,0.0,,0.0
116,2014-02-18,0.0,,0.0
116,2014-02-19,0.0,,0.0
116,2014-02-20,0.0,,0.0
116,2014-02-21,0.0,,0.0
116,2014-02-22,0.022833333333333334,,0.022833333333333334
116,2014-02-23,0.6966666666666667,,0.6966666666666667
116,2014-02-24,9.610041666666666,,9.610041666666666
116,2014-02-25,8.865958333333333,,8.865958333333333
116,2014-02-26,13.057250000000002,,13.057250000000002
116,2014-02-27,14.104208333333332,,14.104208333333332
116,2014-02-28,23.494791666666668,,23.494791666666668
116,2014-03-01,22.756583333333335,,22.756583333333335
116,2014-03-02,8.251958333333333,,8.251958333333333
116,2014-03-03,11.513083333333334,,11.513083333333334
116,2014-03-04,23.526708333333332,,23.526708333333332
116,2014-03-05,17.737,,17.737
116,2014-03-06,29.050124999999998,,29.050124999999998
116,2014-03-07,17.716166666666666,,17.716166666666666
116,2014-03-08,27.918625000000002,,27.918625000000002
116,2014-03-09,33.464875,,33.464875
116,2014-03-10,18.640041666666665,,18.640041666666665
116,2014-03-11,31.183041666666668,,31.183041666666668
116,2014-03-12,8.627666666666666,,8.627666666666666
116,2014-03-13,34.713625,,34.713625
116,2014-03-14,24.998708333333337,,24.998708333333337
116,2014-03-15,25.59183333333333,,25.59183333333333
116,2014-03-16,31.833416666666665,,31.833416666666665
116,2014-03-17,22.11916666666667,,22.11916666666667
116,2014-03-18,38.580083333333334,,38.580083333333334
116,2014-03-19,12.067749999999998,,12.067749999999998
116,2014-03-20,27.92579166666667,,27.92579166666667
116,2014-03-21,40.383583333333334,,40.383583333333334
116,2014-03-22,29.354166666666668,,29.354166666666668
116,2014-03-23,15.903,,15.903
116,2014-03-24,37.60733333333334,,37.60733333333334
116,2014-03-25,27.323666666666668,,27.323666666666668
116,2014-03-26,39.22141666666666,,39.22141666666666
116,2014-03-27,36.914791666666666,,36.914791666666666
116,2014-03-28,6.709666666666667,,6.709666666666667
116,2014-03-29,6.307375,,6.307375
116,2014-03-30,8.554041666666667,,8.554041666666667
116,2014-03-31,32.084583333333335,,32.084583333333335
116,2014-04-01,34.76241666666667,,34.76241666666667
116,2014-04-02,17.197916666666668,,17.197916666666668
116,2014-04-03,37.372458333333334,,37.372458333333334
116,2014-04-04,5.811875000000001,,5.811875000000001
116,2014-04-05,27.964250000000003,,27.964250000000003
116,2014-04-06,42.195375,,42.195375
116,2014-04-07,13.250625,,13.250625
116,2014-04-08,21.202458333333333,,21.202458333333333
116,2014-04-09,38.82425,,38.82425
116,2014-04-10,42.598958333333336,,42.598958333333336
116,2014-04-11,19.429083333333335,,19.429083333333335
116,2014-04-12,40.44408333333333,,40.44408333333333
116,2014-04-13,31.011125000000003,,31.011125000000003
116,2014-04-14,29.164,,29.164
116,2014-04-15,2.903708333333333,,2.903708333333333
116,2014-04-16,38.231208333333335,,38.231208333333335
116,2014-04-17,44.96420833333334,,44.96420833333334
116,2014-04-18,31.199250000000003,,31.199250000000003
116,2014-04-19,43.89070833333333,,43.89070833333333
116,2014-04-20,43.42904166666667,,43.42904166666667
116,2014-04-21,42.97075,,42.97075
116,2014-04-22,25.746166666666667,,25.746166666666667
116,2014-04-23,29.783916666666666,,29.783916666666666
116,2014-04-24,46.849625,,46.849625
116,2014-04-25,40.970166666666664,,40.970166666666664
116,2014-04-26,27.344458333333336,,27.344458333333336
116,2014-04-27,24.996666666666666,,24.996666666666666
116,2014-04-28,43.654291666666666,,43.654291666666666
116,2014-04-29,9.740333333333334,,9.740333333333334
116,2014-04-30,2.6757916666666666,,2.6757916666666666
116,2014-05-01,28.965541666666667,,28.965541666666667
116,2014-05-02,29.858125,,29.858125
116,2014-05-03,30.022875,,30.022875
116,2014-05-04,32.52345833333333,,32.52345833333333
116,2014-05-05,45.50270833333334,,45.50270833333334
116,2014-05-06,32.33983333333333,,32.33983333333333
116,2014-05-07,41.49870833333333,,41.49870833333333
116,2014-05-08,5.904958333333333,,5.904958333333333
116,2014-05-09,6.358083333333333,,6.358083333333333
116,2014-05-10,26.813208333333336,,26.813208333333336
116,2014-05-11,45.298833333333334,,45.298833333333334
116,2014-05-12,30.673208333333335,,30.673208333333335
116,2014-05-13,35.81316666666667,,35.81316666666667
116,2014-05-14,32.80345833333333,,32.80345833333333
116,2014-05-15,5.580208333333334,,5.580208333333334
116,2014-05-16,5.128291666666667,,5.128291666666667
116,2014-05-17,41.17454166666666,,41.17454166666666
116,2014-05-18,32.507875,,32.507875
116,2014-05-19,34.24154166666667,,34.24154166666667
116,2014-05-20,40.9205,,40.9205
116,2014-05-21,30.022166666666667,,30.022166666666667
116,2014-05-22,5.637375,,5.637375
116,2014-05-23,19.586583333333333,,19.586583333333333
116,2014-05-24,23.054083333333335,,23.054083333333335
116,2014-05-25,41.197916666666664,,41.197916666666664
116,2014-05-26,40.20579166666666,,40.20579166666666
116,2014-05-27,30.80666666666667,,30.80666666666667
116,2014-05-28,7.865333333333333,,7.865333333333333
116,2014-05-29,43.39779166666667,,43.39779166666667
116,2014-05-30,37.47595833333333,,37.47595833333333
116,2014-05-31,42.70970833333333,,42.70970833333333
116,2014-06-01,45.44208333333333,,45.44208333333333
116,2014-06-02,44.3405,,44.3405
116,2014-06-03,32.00716666666667,,32.00716666666667
116,2014-06-04,32.79954166666666,,32.79954166666666
116,2014-06-05,23.122500000000002,,23.122500000000002
116,2014-06-06,38.41216666666667,,38.41216666666667
116,2014-06-07,42.81579166666666,,42.81579166666666
116,2014-06-08,39.03520833333334,,39.03520833333334
116,2014-06-09,5.880875,,5.880875
116,2014-06-10,19.500125,,19.500125
116,2014-06-11,11.352291666666666,,11.352291666666666
116,2014-06-12,6.317041666666667,,6.317041666666667
116,2014-06-13,15.013666666666666,,15.013666666666666
116,2014-06-14,39.843125,,39.843125
116,2014-06-15,45.67058333333333,,45.67058333333333
116,2014-06-16,43.173833333333334,,43.173833333333334
116,2014-06-17,36.686166666666665,,36.686166666666665
116,2014-06-18,44.073,,44.073
116,2014-06-19,21.251416666666668,,21.251416666666668
116,2014-06-20,44.04624999999999,,44.04624999999999
116,2014-06-21,43.76766666666666,,43.76766666666666
116,2014-06-22,38.676541666666665,,38.676541666666665
116,2014-06-23,32.417375,,32.417375
116,2014-06-24,34.908875,,34.908875
116,2014-06-25,28.341166666666666,,28.341166666666666
116,2014-06-26,27.875125,,27.875125
116,2014-06-27,42.07941666666667,,42.07941666666667
116,2014-06-28,41.98445833333333,,41.98445833333333
116,2014-06-29,33.60483333333333,,33.60483333333333
116,2014-06-30,35.197250000000004,,35.197250000000004
116,2014-07-01,29.963708333333333,,29.963708333333333
116,2014-07-02,31.546875,,31.546875
116,2014-07-03,24.755958333333336,,24.755958333333336
116,2014-07-04,15.333374999999998,,15.333374999999998
116,2014-07-05,46.231875,,46.231875
116,2014-07-06,44.881541666666664,,44.881541666666664
116,2014-07-07,40.32170833333333,,40.32170833333333
116,2014-07-08,37.515750000000004,,37.515750000000004
116,2014-07-09,35.55083333333334,,35.55083333333334
116,2014-07-10,38.47141666666666,,38.47141666666666
116,2014-07-11,42.99104166666667,,42.99104166666667
116,2014-07-12,35.90495833333333,,35.90495833333333
116,2014-07-13,22.31125,,22.31125
116,2014-07-14,17.929791666666667,,17.929791666666667
116,2014-07-15,17.019625,,17.019625
116,2014-07-16,27.744833333333332,,27.744833333333332
116,2014-07-17,35.15375,,35.15375
116,2014-07-18,40.599041666666665,,40.599041666666665
116,2014-07-19,25.12375,,25.12375
116,2014-07-20,35.58858333333333,,35.58858333333333
116,2014-07-21,36.73316666666667,,36.73316666666667
116,2014-07-22,37.035291666666666,,37.035291666666666
116,2014-07-23,36.22929166666667,,36.22929166666667
116,2014-07-24,35.50395833333334,,35.50395833333334
116,2014-07-25,41.56920833333333,,41.56920833333333
116,2014-07-26,20.037916666666668,,20.037916666666668
116,2014-07-27,26.38416666666667,,26.38416666666667
116,2014-07-28,27.540458333333333,,27.540458333333333
116,2014-07-29,34.129041666666666,,34.129041666666666
116,2014-07-30,37.97666666666667,,37.97666666666667
116,2014-07-31,33.638,,33.638